Regional Weather Roundup
Issued by NWS Northern Indiana

Home | Current Version | Previous Version | Text Only | Print | Product List | Glossary Off
Versions: 1 2 3 4 5 6 7 8 9 10 11 12 13 14 15 16 17 18 19 20 21 22 23 24 25 26 27 28 29 30 31 32 33 34 35 36 37 38 39 40 41 42 43 44 45 46 47 48 49 50

000
ASUS43 KIWX 220100
RWRIWX

KIWX WEATHER ROUNDUP
NATIONAL WEATHER SERVICE NORTHERN INDIANA
900 PM EDT TUE OCT 21 2014

NOTE: "FAIR" INDICATES FEW OR NO CLOUDS BELOW 12,000 FEET WITH NO
SIGNIFICANT WEATHER AND/OR OBSTRUCTIONS TO VISIBILITY.

* THESE STATIONS ARE NOT UNDER NWS QUALITY CONTROL. THEY ALSO MAY NOT
  REPORT WEATHER SUCH AS PRECIPITATION OR FOG.

INZ001>027-220200-
NORTHERN INDIANA

CITY           SKY/WX    TMP DP  RH WIND       PRES   REMARKS
GARY*          CLOUDY    52  39  62 NE16      30.23R
SOUTH BEND     PTCLDY    44  36  73 NE5       30.22R
ELKHART*       CLOUDY    46  36  66 N7        30.22R
GOSHEN         CLOUDY    47  38  71 N7        30.20R
ANGOLA*        CLOUDY    45  27  49 N3        30.20R
FORT WAYNE     CLOUDY    48  35  60 N10       30.20R
PERU/GRISSOM   CLOUDY    49  44  83 N7        30.19R

$$
INZ028>050-220200-
CENTRAL INDIANA

CITY           SKY/WX    TMP DP  RH WIND       PRES   REMARKS
LAFAYETTE      CLEAR     45  39  79 N6        30.20R
KOKOMO*        CLOUDY    50  39  66 NE13      30.19R
MUNCIE*        CLOUDY    49  39  68 NE9       30.17R
INDIANAPOLIS   NOT AVBL

$$
MIZ043>046-050>051-056>058-064>065-071>073-077>080-220200-
SOUTHWEST LOWER MICHIGAN

CITY           SKY/WX    TMP DP  RH WIND       PRES   REMARKS
BATTLE CREEK   CLEAR     40  34  79 CALM      30.21R
BENTON HARBOR  CLEAR     39  37  92 CALM      30.22R
COLDWATER*     CLEAR     44  36  75 CALM      30.20R
HILLSDALE*     MOCLDY    43  36  78 N7        30.18S
HOLLAND        CLEAR     41  36  82 CALM      30.22R
GRAND RAPIDS   CLEAR     41  35  79 CALM      30.21R
KALAMAZOO      CLEAR     40  34  79 CALM      30.21R
STURGIS*       PTCLDY    43  37  81 CALM      30.20R
THREE RIVERS*  FAIR      43  37  77 CALM      30.22R

$$
OHZ001>008-015>018-024>025-220200-
NORTHWEST OHIO

CITY           SKY/WX    TMP DP  RH WIND       PRES   REMARKS
DEFIANCE       CLOUDY    46  36  68 N7        30.20R
FINDLAY        CLOUDY    46  38  73 N8        30.16R
TOLEDO EXPRESS CLOUDY    45  37  73 N13       30.18R
TOLEDO METCALF CLOUDY    46  36  68 N13       30.18R
LIMA           CLOUDY    46  37  71 N10       30.17R

$$
AND FOR LAKE MICHIGAN COASTAL AND OPEN LAKE BUOY OBSERVATIONS

STATION/POSITION TEMP    WIND        PRES    VSBY  WAVE
                 AIR SEA DIR/SP/G                  HT/PER
                 (F)     (DEG/KT/KT) (MB)    (MI)  (FT/S)
CALUMET HARBOR    50     350/ 12/ 17 1022.4R
MICHIGAN CITY     50     360/ 16/ 19   N/A
SAINT JOSEPH      44                 1023.7S
SOUTH LAKE BUOY   49 54  350/ 16/ 17 1023.4R         5/ 6

$$
&&



USA.gov is the U.S. government's official web portal to all federal, state and local government web resources and services.